This is the latest recevied weather packets stored in our database for station/object DL4PY-13. If no packets are shown the sender has not sent any weather packets the latest 10 day(s).
| Time | Temp. | Humidity | Pressure | Rain* | Wind** | Luminosity | Snow |
|---|---|---|---|---|---|---|---|
| 1777893620 | 18.89° C | 62% | 1014.6 hPa | 0 mm | - | - | - |
| 1777893317 | 18.89° C | 63% | 1014.5 hPa | 0 mm | - | - | - |
| 1777893017 | 18.89° C | 62% | 1014.5 hPa | 0 mm | - | - | - |
| 1777892717 | 19.44° C | 62% | 1014.6 hPa | 0 mm | - | - | - |
| 1777892417 | 19.44° C | 62% | 1014.6 hPa | 0 mm | - | - | - |
| 1777891524 | 18.89° C | 63% | 1014.6 hPa | 0 mm | - | - | - |
| 1777891217 | 18.89° C | 63% | 1014.7 hPa | 0 mm | - | - | - |
| 1777890916 | 18.89° C | 62% | 1014.8 hPa | 0 mm | - | - | - |
| 1777890626 | 18.89° C | 62% | 1014.7 hPa | 0 mm | - | - | - |
| 1777889725 | 18.89° C | 64% | 1014.7 hPa | 0 mm | - | - | - |
| 1777889417 | 18.89° C | 62% | 1014.8 hPa | 0 mm | - | - | - |
| 1777889117 | 18.89° C | 63% | 1014.8 hPa | 0 mm | - | - | - |
| 1777888817 | 18.89° C | 62% | 1014.7 hPa | 0 mm | - | - | - |
| 1777888216 | 18.89° C | 63% | 1014.8 hPa | 0 mm | - | - | - |
| 1777887918 | 18.89° C | 62% | 1014.9 hPa | 0 mm | - | - | - |
| 1777887617 | 18.33° C | 63% | 1015.1 hPa | 0 mm | - | - | - |
| 1777887317 | 18.89° C | 63% | 1015 hPa | 0 mm | - | - | - |
| 1777887016 | 18.89° C | 62% | 1015 hPa | 0 mm | - | - | - |
| 1777886718 | 18.89° C | 62% | 1015 hPa | 0 mm | - | - | - |
| 1777886416 | 18.89° C | 63% | 1015 hPa | 0 mm | - | - | - |
| 1777886124 | 18.89° C | 62% | 1015 hPa | 0 mm | - | - | - |
| 1777885217 | 18.33° C | 66% | 1015 hPa | 0 mm | - | - | - |
| 1777884316 | 17.78° C | 67% | 1015 hPa | 0 mm | - | - | - |
| 1777884017 | 17.78° C | 66% | 1015 hPa | 0 mm | - | - | - |
| 1777883717 | 17.78° C | 68% | 1015 hPa | 0 mm | - | - | - |
* Rain latest hour (hover to see other rain measurements)
** Current wind speed in m/s (hover to see current wind gust speed)